Content
SEND FEEDBACK

Daily
Averages
Monthly
Summary
United States of America

AUBURN, NEW YORK


Home > North America > United States > New York
Elevation: 72 feet     Latitude: 42 55N     Longitude: 076 32W

WEATHER
 
SELECT A DAY
Number of Records: 229,264;   Date Range: 1/1/95 - 12/24/14
 
SHARE

PRINT THIS DATA

[ ← Previous Day ]
WEATHER ALMANAC - FEBRUARY 13, 2013
[ Next Day → ]
[ °C ]   °F
Weather ElementAverageHighLow
Temperature32.2 °F39 °F (3:54 pm)25 °F (10:54 pm)
Dewpoint20.3 °F24.1 °F (3:54 am)17.1 °F (11:54 am)
Humidity62.6 %75 % (6:54 am)43 % (11:54 am)
Barometer29.81 in29.90 in (1:54 am)29.73 in (4:54 pm)
Wind Speed4.1 mph11.5 mph (10:54 am)
Weather ElementAverage
Visibility9.7 mi
Wind DirectionSE (129.6 °)

Weather ElementTotal
Precipitation---
Heating Degree Days33 (Base 65)
Averaged from 23 records on February 13, 2013
WEATHER CONDITIONS BREAKOUT
WIND DIRECTION BREAKOUT
WEATHER BY HOUR - FEBRUARY 13, 2013
[ °C ]   °F
Local TimeTemperatureDewpointHumidityBarometerVisibilityWind DirectionWind SpeedGust SpeedPrecipitationEventsConditions
1:54 AM32.0 °F23.0 °F69 %29.90 in10.0 miWSW (250°)8.1 mphOvercast
2:54 AM32.0 °F23.0 °F69 %29.90 in10.0 miWSW (240°)8.1 mphOvercast
3:54 AM32.0 °F24.1 °F73 %29.89 in9.0 miSW (220°)8.1 mph0.00 inSnowLight Snow
4:54 AM30.9 °F23.0 °F72 %29.88 in9.0 miWSW (250°)6.9 mph0.00 inSnowLight Snow
5:54 AM30.9 °F23.0 °F72 %29.88 in9.0 miWSW (250°)8.1 mph0.00 inSnowLight Snow
6:54 AM30.0 °F23.0 °F75 %29.87 in9.0 miWSW (240°)5.8 mph0.00 inSnowLight Snow
7:54 AM30.9 °F23.0 °F72 %29.87 in10.0 miCalm0.00 inOvercast
8:54 AM32.0 °F23.0 °F69 %29.86 in10.0 miSouth (190°)5.8 mph0.00 inMostly Cloudy
9:54 AM34.0 °F21.9 °F61 %29.85 in10.0 miWest (260°)5.8 mphOvercast
10:54 AM35.1 °F19.0 °F52 %29.83 in10.0 miWest (260°)11.5 mphScattered Clouds
11:54 AM37.9 °F17.1 °F43 %29.82 in10.0 miVariable3.5 mphMostly Cloudy
12:54 PM36.0 °F18.0 °F48 %29.78 in10.0 miCalmMostly Cloudy
1:54 PM35.1 °F19.0 °F52 %29.78 in10.0 miSSE (160°)5.8 mphMostly Cloudy
2:54 PM37.0 °F18.0 °F46 %29.76 in10.0 miCalmScattered Clouds
3:54 PM39.0 °F19.0 °F45 %29.75 in10.0 miCalmPartly Cloudy
4:54 PM37.0 °F18.0 °F46 %29.73 in10.0 miCalmMostly Cloudy
5:54 PM32.0 °F18.0 °F56 %29.73 in10.0 miNE (40°)4.6 mphMostly Cloudy
6:54 PM30.0 °F18.0 °F61 %29.73 in10.0 miCalmMostly Cloudy
7:54 PM28.9 °F19.0 °F67 %29.75 in10.0 miCalmOvercast
8:54 PM28.9 °F19.9 °F69 %29.76 in10.0 miNorth (350°)3.5 mphOvercast
9:54 PM27.0 °F19.0 °F72 %29.76 in10.0 miCalmOvercast
10:54 PM25.0 °F18.0 °F75 %29.77 in9.0 miCalmOvercast
11:54 PM26.1 °F19.0 °F75 %29.78 in9.0 miWest (270°)8.1 mphMostly Cloudy
Hourly data recorded from KSYR, located miles away from Auburn, New York







STORIES FROM OUR PARTNERS